TURKSAT 6A

Last updated on Sun Apr 12 2026 00:02:56 GMT+0000 (Coordinated Universal Time)

1 60233U 24127A 26101.45767506 .00000148 00000+0 00000+0 0 9991 2 60233 0.0295 192.4476 0001169 155.8730 58.1472 1.00272501 6349
UTC large
Height (km)
Speed (km/s)
/
Latitude / Longitude
Inclination (degrees)
Orbital Period (minutes)
Azimuth
Elevation
Range (km)
Doppler Factor

Next 0 passes for location: London (51.5072 / 0.1276)

Sorry there are no passes over London.
TURKSAT 6A